Location: *
(46.1833°N, 22.7667°E)
Time: 00:21:59
(UTC+00:00)

SAR-Lupe-2 - Pass Details

Date: 17 September 2019
Orbit: 481 x 485 km, 98.2° (Epoch: 07 October)

Event Time Altitude Azimuth Distance (km) Brightness Sun altitude
Rises 18:02:01 0° 10° (N) 2,563 7.4 -15.1°
Reaches altitude 10° 18:04:07 10° 7° (N) 1,676 6.4 -15.5°
Maximum altitude 18:07:40 61° 287° (WNW) 553 4.1 -16.1°
Drops below altitude 10° 18:11:11 10° 206° (SSW) 1,659 6.3 -16.6°
Sets 18:13:17 0° 203° (SSW) 2,548 7.2 -17.0°
